Apolo11.com - Imagens de satélite, tecnologia e fenômenos naturais




Elementos Keplerianos formato Two Line

Para que um programa de rastreio possa saber a localização exata de qualquer satélite no espaço e assim poder rastreá-lo corretamente, é necessário que ele seja carregado com algumas informações.

Estas informações são chamadas de Elementos Orbitais ou Elementos Keplerianos e consistem em 2 linhas com dezenas de números. Esses números nada mais são que os parâmetros orbitais do satélite, tais como altitude, atitude, excentricidade da órbita, número de órbitas por dia, etc.

Com base nestas informações o programa é capaz de determinar com bastante exatidão a posição de qualquer satélite no espaço e nos informar em qual horário este estará dentro do alcance de nossa estação. Para que isso seja feito com precisão é necessário que os dados estejam sempre bem atualizadas.

Devido aos parâmetros orbitais serem descritos em 2 linhas, estes formato é também conhecido internacionalmente por 2line (leia-se Two Line”).

Para atualizar seu programa de rastreio basta copiar os dados disponibilizados e fornece-los ao programa. Nossos elementos orbitais são atualizados diariamente.


NOAATodos os satélites ambientais da série NOAA
30 DiasSatélites lançados nos últimos 30 dias
ISSSatélites e foguetes relacionados à Estação Espacial Internacional
HAMSatélites construídos por radiomadores
CUBESatélites tipo cubo, com 10 centímetros de lado
METEOSatélites voltados à previsão do tempo
EDUSatélites construídos e operados por universidades
VIS100 satélites mais brilhantes que podem ser vistos a olho nú


Satélites série NOAA
NOAA 1 [-]              
1 04793U 70106A   12212.53694643 -.00000031  00000-0  10000-3 0  3437
2 04793 102.0663 239.6139 0032240  71.0869 289.3693 12.53952490905721
NOAA 2 [-]              
1 06235U 72082A   12212.50445498 -.00000027  00000-0  10000-3 0  4429
2 06235 101.4295 199.9132 0003452 210.2634 149.8239 12.53026555820163
NOAA 3 [-]              
1 06920U 73086A   12212.48346624 -.00000030  00000-0  10000-3 0  3347
2 06920 101.7149 206.5947 0006364 180.9651 179.1402 12.40326892753527
NOAA 4 [-]              
1 07529U 74089A   12212.55340696 -.00000027  00000-0  10000-3 0  3445
2 07529 101.4205 208.2618 0008569 249.7324 110.2828 12.53072745724757
NOAA 5 [-]              
1 09057U 76077A   12212.48481239 -.00000030  00000-0  10000-3 0  2222
2 09057 101.7797 233.8172 0010336  24.1900 335.9646 12.37776457627448
TIROS N [P]             
1 11060U 78096A   12212.90901433  .00000034  00000-0  39202-4 0  1174
2 11060  99.0425 212.6338 0011242  18.1093 342.0480 14.17688457960429
NOAA 6 [P]              
1 11416U 79057A   12212.54745104  .00000108  00000-0  55571-4 0  1829
2 11416  98.4214 207.5549 0010895 121.4413 238.7837 14.32329605724785
NOAA 7 [-]              
1 12553U 81059A   12212.47104020  .00000011  00000-0  27266-4 0  2841
2 12553  98.8013 160.0630 0011016 298.2760  61.7302 14.16896153606854
NOAA 8 [-]              
1 13923U 83022A   12212.55633203  .00000074  00000-0  47134-4 0  1905
2 13923  98.4714 228.1345 0015994   8.3017 351.8426 14.27900531527437
NOAA 9 [P]              
1 15427U 84123A   12212.48662741 -.00000014  00000-0  14344-4 0   800
2 15427  98.5709 172.4917 0015357  25.1635 335.0274 14.15504800426120
NOAA 10 [-]             
1 16969U 86073A   12212.47554678  .00000034  00000-0  31195-4 0   114
2 16969  98.5791 240.7560 0013031 106.2535 254.0084 14.27565804346048
NOAA 11 [-]             
1 19531U 88089A   12212.27931126  .00000239  00000-0  14579-3 0    63
2 19531  98.7317 296.5312 0011968  99.7725 260.4795 14.14975692230600
NOAA 12 [-]             
1 21263U 91032A   12212.49520159  .00000028  00000-0  30429-4 0  4922
2 21263  98.7275 233.9541 0014860  75.8527 284.4303 14.25508956102725
NOAA 13 [-]             
1 22739U 93050A   12212.28678423 -.00000057  00000-0 -73883-5 0   100
2 22739  98.7791 289.6727 0008976 209.0535 151.0138 14.12349657977746
NOAA 14 [-]             
1 23455U 94089A   12212.49721074  .00000136  00000-0  94928-4 0  9728
2 23455  98.8253 295.4515 0009311 187.9293 172.1734 14.13864836906914
NOAA 15 [P]             
1 25338U 98030A   12212.16612329 -.00000032  00000-0  50124-5 0  3491
2 25338  98.6929 198.6759 0010515 349.2737  10.8232 14.25098478738976
NOAA 16 [P]             
1 26536U 00055A   12212.16835142  .00000329  00000-0  20189-3 0  8378
2 26536  99.0913 254.9497 0010036 326.3902  33.6633 14.12764662611102
NOAA 17 [P]             
1 27453U 02032A   12212.43247323  .00000093  00000-0  57579-4 0  7856
2 27453  98.3348 237.2818 0012289  34.3703 325.8270 14.24463492524918
NOAA 18 [+]             
1 28654U 05018A   12212.44259347  .00000444  00000-0  26900-3 0  2675
2 28654  99.0481 170.8977 0015015  35.8110 324.4060 14.11679879370661
NOAA 19 [+]             
1 33591U 09005A   12212.46013520  .00000483  00000-0  29089-3 0  4568
2 33591  98.8641 151.7164 0013196 258.9173 101.0507 14.11367041179110
NPP [+]                 
1 37849U 11061A   12212.16462938  .00000074  00000-0  55787-4 0  2458
2 37849  98.7154 149.0070 0000292 136.3801 223.7405 14.19548926 39131


IMAGENS DE SATÉLITES !    Clique e conheça nosso Vídeo Workshop de sensoriamento remoto e imagens meteorológicas.
Apolo11.com - Todos os direitos reservados - 2001 - 2013
Política de Privacidade

"Política é a guerra sem sangue enquanto a guerra é a política com sangue" - Mao Tsé-Tung